Weather History for Owatonna, MN

Change the Weather History Date:

Saturday, January 19, 2013

  Actual Average Record
Temperature  
Mean Temperature 24 °F -  
Max Temperature 42 °F 23 °F 47 °F (1981)
Min Temperature 6 °F 3 °F -30 °F (1970)
Degree Days  
Heating Degree Days 41    
Moisture  
Dew Point 18 °F    
Average Humidity 64    
Maximum Humidity 81    
Minimum Humidity 49    
Precipitation  
Precipitation 0.00 in - - ()
Sea Level Pressure  
Sea Level Pressure 29.86 in    
Wind  
Wind Speed 12 mph (West)    
Max Wind Speed 38 mph    
Max Gust Speed 51 mph    
Visibility 10 miles    
Events      
Averages and records for this station are not official NWS values.
T = Trace of Precipitation, MM = Missing Value Source: NWS Daily Summary

Daily Weather History Graph

Daily Weather History Graph

Search for Another Location

Airport:

Trip Planner

Search our weather history database for the weather conditions in past years. The results will help you decide how hot, cold, wet, or windy it might be!

Date:

Astronomy

Jan. 19, 2013 Rise Set
Actual Time 7:42 AM CST 5:05 PM CST
Civil Twilight 7:10 AM CST 5:37 PM CST
Nautical Twilight 6:34 AM CST 6:13 PM CST
Astronomical Twilight 6:00 AM CST 6:47 PM CST
Moon 11:34 AM CST (1/19) 1:13 AM CST (1/19)
Length of Visible Light 10h 27m
Length of Day
9h 23m
First Quarter, 57% of the Moon is Illuminated
Jan 19
First Quarter
Jan 26
Full
Feb 3
Last Quarter
Feb 10
New
Feb 17
First Quarter

Hourly Weather History & Observations

Time (CST) Temp. Windchill Dew Point Humidity Pressure Visibility Wind Dir Wind Speed Gust Speed Precip Events Conditions
12:15 AM 33.8 °F - 26.6 °F 75% 29.78 in 10.0 mi Calm Calm - N/A   Clear
12:35 AM 33.8 °F 27.7 °F 26.6 °F 75% 29.77 in 10.0 mi South 6.9 mph - N/A   Clear
12:54 AM 33.8 °F - 28.4 °F 81% 29.77 in 10.0 mi Calm Calm - N/A   Clear
1:14 AM 35.6 °F - 28.4 °F 75% 29.76 in 10.0 mi Calm Calm - N/A   Clear
1:34 AM 33.8 °F - 26.6 °F 75% 29.76 in 10.0 mi Calm Calm - N/A   Clear
1:54 AM 33.8 °F - 26.6 °F 75% 29.76 in 10.0 mi Calm Calm - N/A   Clear
2:14 AM 33.8 °F 30.8 °F 26.6 °F 75% 29.76 in 10.0 mi SE 3.5 mph - N/A   Scattered Clouds
2:34 AM 33.8 °F 30.8 °F 28.4 °F 81% 29.76 in 10.0 mi SSE 3.5 mph - N/A   Clear
2:54 AM 33.8 °F 30.8 °F 26.6 °F 75% 29.75 in 10.0 mi South 3.5 mph - N/A   Scattered Clouds
3:14 AM 35.6 °F 32.8 °F 28.4 °F 75% 29.74 in 10.0 mi SSE 3.5 mph - N/A   Scattered Clouds
3:34 AM 35.6 °F 32.8 °F 28.4 °F 75% 29.73 in 10.0 mi SSE 3.5 mph - N/A   Scattered Clouds
3:54 AM 35.6 °F - 28.4 °F 75% 29.73 in 10.0 mi Calm Calm - N/A   Mostly Cloudy
4:14 AM 35.6 °F 32.8 °F 28.4 °F 75% 29.72 in 10.0 mi SSE 3.5 mph - N/A   Scattered Clouds
4:34 AM 37.4 °F 32.8 °F 28.4 °F 70% 29.72 in 10.0 mi South 5.8 mph - N/A   Scattered Clouds
4:54 AM 37.4 °F 32.1 °F 28.4 °F 70% 29.71 in 10.0 mi South 6.9 mph - N/A   Mostly Cloudy
5:14 AM 37.4 °F 31.4 °F 28.4 °F 70% 29.69 in 10.0 mi South 8.1 mph - N/A   Scattered Clouds
5:34 AM 37.4 °F 30.8 °F 28.4 °F 70% 29.70 in 10.0 mi South 9.2 mph - N/A   Scattered Clouds
5:54 AM 37.4 °F 30.8 °F 28.4 °F 70% 29.70 in 10.0 mi South 9.2 mph - N/A   Mostly Cloudy
6:14 AM 37.4 °F 30.8 °F 28.4 °F 70% 29.70 in 10.0 mi SSW 9.2 mph - N/A   Scattered Clouds
6:34 AM 35.6 °F 30.7 °F 28.4 °F 75% 29.71 in 10.0 mi SW 5.8 mph - N/A   Scattered Clouds
6:54 AM 37.4 °F 30.8 °F 28.4 °F 70% 29.70 in 10.0 mi SW 9.2 mph - N/A   Scattered Clouds
7:14 AM 37.4 °F 30.8 °F 28.4 °F 70% 29.70 in 10.0 mi SW 9.2 mph - N/A   Scattered Clouds
7:34 AM 37.4 °F 30.3 °F 28.4 °F 70% 29.69 in 10.0 mi SSW 10.4 mph - N/A   Clear
7:54 AM 35.6 °F 29.2 °F 26.6 °F 70% 29.70 in 10.0 mi SSW 8.1 mph - N/A   Clear
8:14 AM 37.4 °F 31.4 °F 28.4 °F 70% 29.71 in 10.0 mi WSW 8.1 mph - N/A   Clear
8:34 AM 37.4 °F 30.8 °F 28.4 °F 70% 29.72 in 10.0 mi WSW 9.2 mph - N/A   Clear
8:54 AM 37.4 °F 31.4 °F 28.4 °F 70% 29.73 in 10.0 mi WSW 8.1 mph - N/A   Clear
9:34 AM 37.4 °F 30.3 °F 28.4 °F 70% 29.75 in 10.0 mi West 10.4 mph - N/A   Clear
9:54 AM 37.4 °F 30.8 °F 28.4 °F 70% 29.75 in 10.0 mi West 9.2 mph - N/A   Clear
10:14 AM 39.2 °F 33.6 °F 28.4 °F 65% 29.75 in 10.0 mi West 8.1 mph - N/A   Clear
10:34 AM 39.2 °F 32.5 °F 28.4 °F 65% 29.75 in 10.0 mi West 10.4 mph - N/A   Scattered Clouds
10:54 AM 39.2 °F 31.6 °F 28.4 °F 65% 29.76 in 10.0 mi West 12.7 mph - N/A   Clear
11:14 AM 42.8 °F 34.5 °F 28.4 °F 57% 29.76 in 10.0 mi West 18.4 mph - N/A   Clear
11:34 AM 41.0 °F 32.5 °F 28.4 °F 61% 29.76 in 10.0 mi West 17.3 mph 25.3 mph N/A   Scattered Clouds
11:54 AM 39.2 °F 30.8 °F 28.4 °F 65% 29.75 in 10.0 mi West 15.0 mph - N/A   Scattered Clouds
12:14 PM 39.2 °F 31.2 °F 28.4 °F 65% 29.75 in 10.0 mi West 13.8 mph - N/A   Scattered Clouds
12:34 PM 42.8 °F 34.8 °F 28.4 °F 57% 29.75 in 10.0 mi West 17.3 mph 20.7 mph N/A   Scattered Clouds
12:54 PM 42.8 °F 34.8 °F 28.4 °F 57% 29.76 in 10.0 mi WNW 17.3 mph 26.5 mph N/A   Clear
1:14 PM 42.8 °F 34.5 °F 30.2 °F 61% 29.76 in 10.0 mi West 18.4 mph 24.2 mph N/A   Scattered Clouds
1:34 PM 42.8 °F 33.3 °F 30.2 °F 61% 29.76 in 10.0 mi West 24.2 mph 32.2 mph N/A   Scattered Clouds
1:54 PM 42.8 °F 33.3 °F 28.4 °F 57% 29.77 in 10.0 mi WNW 24.2 mph 35.7 mph N/A   Scattered Clouds
2:14 PM 42.8 °F 33.5 °F 28.4 °F 57% 29.77 in 10.0 mi WNW 23.0 mph 36.8 mph N/A   Scattered Clouds
2:34 PM 41.0 °F 30.7 °F 26.6 °F 57% 29.78 in 10.0 mi WNW 25.3 mph 32.2 mph N/A   Mostly Cloudy
2:54 PM 41.0 °F 29.5 °F 26.6 °F 57% 29.79 in 10.0 mi WNW 32.2 mph 41.4 mph N/A   Mostly Cloudy
3:14 PM 37.4 °F 24.4 °F 24.8 °F 60% 29.83 in 10.0 mi WNW 33.4 mph 50.6 mph N/A   Overcast
3:34 PM 35.6 °F 23.0 °F 21.2 °F 56% 29.84 in 10.0 mi WNW 27.6 mph 40.3 mph N/A   Overcast
3:54 PM 30.2 °F 13.9 °F 17.6 °F 60% 29.87 in 10.0 mi WNW 36.8 mph 47.2 mph N/A   Scattered Clouds
4:14 PM 28.4 °F 11.6 °F 15.8 °F 59% 29.89 in 10.0 mi WNW 35.7 mph 43.7 mph N/A   Scattered Clouds
4:34 PM 24.8 °F 6.6 °F 10.4 °F 54% 29.92 in 10.0 mi WNW 35.7 mph 47.2 mph N/A   Clear
4:54 PM 23.0 °F 4.4 °F 8.6 °F 54% 29.94 in 10.0 mi WNW 34.5 mph 46.0 mph N/A   Clear
5:14 PM 21.2 °F 1.9 °F 6.8 °F 54% 29.96 in 10.0 mi WNW 34.5 mph 46.0 mph N/A   Scattered Clouds
5:34 PM 21.2 °F 1.2 °F 6.8 °F 54% 29.98 in 10.0 mi WNW 38.0 mph 46.0 mph N/A   Scattered Clouds
5:54 PM 19.4 °F 0.2 °F 5.0 °F 54% 29.99 in 10.0 mi WNW 31.1 mph 41.4 mph N/A   Scattered Clouds
6:14 PM 17.6 °F -2.2 °F 1.4 °F 49% 30.01 in 10.0 mi WNW 31.1 mph 47.2 mph N/A   Scattered Clouds
6:34 PM 15.8 °F -4.4 °F 1.4 °F 53% 30.02 in 10.0 mi WNW 29.9 mph 49.5 mph N/A   Scattered Clouds
6:54 PM 15.8 °F -5.8 °F -0.4 °F 49% 30.03 in 10.0 mi WNW 35.7 mph 46.0 mph N/A   Clear
7:14 PM 14.0 °F -8.0 °F -0.4 °F 53% 30.05 in 10.0 mi WNW 34.5 mph 49.5 mph N/A   Clear
7:34 PM 12.2 °F -9.6 °F -0.4 °F 57% 30.07 in 10.0 mi WNW 31.1 mph 38.0 mph N/A   Clear
7:54 PM 12.2 °F -8.9 °F -2.2 °F 53% 30.08 in 10.0 mi WNW 28.8 mph 35.7 mph N/A   Clear
8:14 PM 10.4 °F -9.9 °F -4.0 °F 52% 30.09 in 10.0 mi WNW 24.2 mph 39.1 mph N/A   Clear
8:34 PM 10.4 °F -11.0 °F -2.2 °F 57% 30.11 in 10.0 mi WNW 27.6 mph 36.8 mph N/A   Clear
8:54 PM 10.4 °F -11.0 °F -2.2 °F 57% 30.12 in 10.0 mi WNW 27.6 mph 35.7 mph N/A   Clear
9:14 PM 10.4 °F -11.4 °F -2.2 °F 57% 30.13 in 7.0 mi WNW 28.8 mph 36.8 mph N/A   Scattered Clouds
9:34 PM 8.6 °F -13.8 °F -4.0 °F 57% 30.14 in 10.0 mi WNW 28.8 mph 38.0 mph N/A   Scattered Clouds
9:54 PM 8.6 °F -13.4 °F -4.0 °F 57% 30.16 in 10.0 mi WNW 27.6 mph 34.5 mph N/A   Scattered Clouds
10:14 PM 8.6 °F -12.7 °F -5.8 °F 52% 30.17 in 10.0 mi NW 25.3 mph 34.5 mph N/A   Clear
10:34 PM 6.8 °F -14.3 °F -4.0 °F 61% 30.18 in 5.0 mi WNW 23.0 mph 32.2 mph N/A   Haze
10:54 PM 6.8 °F -11.8 °F -2.2 °F 67% 30.18 in 5.0 mi WNW 17.3 mph 21.9 mph N/A   Haze
11:13 PM 6.8 °F -12.9 °F -5.8 °F 56% 30.18 in 10.0 mi NW 19.6 mph 26.5 mph N/A   Clear
11:33 PM 6.8 °F -12.4 °F -7.6 °F 52% 30.18 in 10.0 mi NW 18.4 mph - N/A   Clear
11:54 PM 6.8 °F -14.3 °F -7.6 °F 52% 30.19 in 10.0 mi NW 23.0 mph 28.8 mph N/A   Clear